Regional Weather Roundup
Issued by NWS

Home | Current Version | Previous Version | Graphics & Text | Print | Product List | Glossary On
Versions: 1 2 3 4 5 6 7 8 9 10 11 12 13 14 15 16 17 18 19 20 21 22 23 24 25 26 27 28 29 30 31 32 33 34 35 36 37 38 39 40 41 42 43 44 45 46 47 48 49 50
000
ASUS43 KLOT 300800
RWRIL

ILLINOIS REGIONAL WEATHER ROUNDUP
NATIONAL WEATHER SERVICE CHICAGO/ROMEOVILLE IL
300 AM CDT WED JUL 30 2014

NOTE: "FAIR" INDICATES FEW OR NO CLOUDS BELOW 12,000 FEET WITH NO
SIGNIFICANT WEATHER AND/OR OBSTRUCTIONS TO VISIBILITY.

* THESE STATIONS ARE NOT UNDER NWS QUALITY CONTROL. THEY ALSO MAY NOT
  REPORT WEATHER SUCH AS PRECIPITATION OR FOG.

ILZ001-002-007-009-015-016-024-300900-
NORTHWEST ILLINOIS

CITY           SKY/WX    TMP DP  RH WIND       PRES   REMARKS
MOLINE         CLEAR     59  56  89 SW3       30.04F
STERLING*      MOCLDY    61  57  88 CALM      30.04R
$$

ILZ003-004-008-010-011-017-018-300900-
NORTH CENTRAL ILLINOIS

CITY           SKY/WX    TMP DP  RH WIND       PRES   REMARKS
ROCKFORD       CLOUDY    60  54  80 CALM      30.04F
FREEPORT*      PTCLDY    58  56  95 CALM      30.05S
$$

ILZ005-006-012>014-019>023-300900-
NORTHEAST ILLINOIS

CITY           SKY/WX    TMP DP  RH WIND       PRES   REMARKS
CHICAGO-OHARE  PTCLDY    60  53  77 W6        30.00S
CHICAGO-MIDWAY PTCLDY    63  56  78 W3        30.00F
AURORA         PTCLDY    57  54  89 W5        30.02S FOG
LANSING*       CLEAR     58  55  87 W3        30.01S
WAUKEGAN       CLEAR     58  55  90 VRB3      29.99S
DUPAGE AIRPORT CLEAR     58  55  90 CALM      30.01S
WHEELING       CLEAR     61  57  87 W3        30.01F
NORTHERLY ISL    N/A     64  56  75 W5          N/A
$$

LMZ740>746-300900-
SOUTHERN LAKE MICHIGAN

STATION/POSITION SKY/WX   TEMP    WIND        PRES    VSBY  WAVE
                          AIR SEA DIR/SP/G                  HT/PER
                          (F)     (DEG/KT/KT) (MB)    (MI)  (FT/S)
SOUTHERN BUOY              61 61  310/  2/  2 1015.7F         1
WAUKEGAN HARBOR            61     280/  9/ 13   N/A
HARRISON CRIB              63      CALM  /  1   N/A
BURNHAM HARBOR             64     240/  5/  6   N/A
CALUMET HARBOR             63     250/  2/  3 1014.8F
MICHIGAN CITY              63     210/  3/  5   N/A
MICHIGAN CITY 6N           66 68  240/  6/  8   N/A           1/ 3
ST. JOSEPH                 65 67  280/  6/  6   N/A           1
$$

ILZ025>027-034>036-040-047-049-050-058-095>099-300900-
WEST-CENTRAL ILLINOIS

CITY           SKY/WX    TMP DP  RH WIND       PRES   REMARKS
QUINCY         CLEAR     59  56  89 SW3       30.08S
GALESBURG*     CLEAR     57  55  92 CALM      30.06S
$$

ILZ028>032-037-038-041>044-048-051>054-059>061-300900-
CENTRAL ILLINOIS

CITY           SKY/WX    TMP DP  RH WIND       PRES   REMARKS
DECATUR        CLEAR     64  57  78 W7        30.06F
PEORIA         PTCLDY    64  57  78 CALM      30.05S
SPRINGFIELD    CLEAR     60  56  86 W6        30.07S
TAYLORVILLE    NOT AVBL
$$

ILZ033-039-045-046-055>057-062-063-300900-
EAST-CENTRAL ILLINOIS

CITY           SKY/WX    TMP DP  RH WIND       PRES   REMARKS
CHAMPAIGN      CLEAR     58  56  93 SW7       30.05F
MATTOON        CLEAR     63  55  75 W7        30.05F
$$

ILZ079-100>102-300900-
SOUTHWEST ILLINOIS

CITY           SKY/WX    TMP DP  RH WIND       PRES   REMARKS
BELLEVILLE     CLEAR     58  58  99 CALM      30.08S FOG
CAHOKIA*       CLOUDY    61  58  90 CALM      30.08F
$$

ILZ064>066-069>071-074>076-080>082-084>086-088>090-092>094-300900-
SOUTH-CENTRAL ILLINOIS

CITY           SKY/WX    TMP DP  RH WIND       PRES   REMARKS
CARBONDALE     CLEAR     57  55  93 CALM      30.09S FOG
MT. VERNON     CLEAR     55  52  88 CALM      30.09F
$$

ILZ067-068-072-073-078-083-087-091-300900-
SOUTHEAST ILLINOIS

CITY           SKY/WX    TMP DP  RH WIND       PRES   REMARKS
LAWRENCEVILLE  CLEAR     57  55  93 CALM      30.07S
FLORA*         CLEAR     55  54  94 CALM      30.08F
HARRISBURG*    CLEAR     56  56 100 CALM      30.10S FOG
$$

ABBREVIATIONS USED IN REMARKS
   TC - TEMPERATURE IN CELSIUS
  WCI - WIND CHILL INDEX
   HX - HEAT INDEX
  VSB - VISIBILITY
$$




USA.gov is the U.S. government's official web portal to all federal, state and local government web resources and services.